Location: Newark
(22.3060°N, 114.2134°E)
Time: 02:23:04
(UTC+00:00)

Vanguard 2 - Pass Details

Date: 07 August 2021
Orbit: 553 x 2937 km, 32.9° (Epoch: 27 September)

Event Time Altitude Azimuth Distance (km) Brightness Sun altitude
Rises 15:41:46 0° 222° (SW) 4,858 - -49.8°
Reaches altitude 10° 15:45:56 10° 214° (SW) 3,444 - -50.1°
Maximum altitude 15:53:01 33° 153° (SSE) 1,560 - -50.5°
Drops below altitude 10° 15:57:46 10° 89° (E) 2,271 - -50.7°
Sets 15:59:58 0° 79° (ENE) 3,018 - -50.8°
